Location: Unspecified
(40.7945°N, 0.0000°E)
Time: 09:50:25
(UTC+00:00)

Vanguard 1 Rocket - All Passes

Search period start: 24 January 2021 00:00
Search period end: 03 February 2021 00:00
Orbit: 655 x 4222 km, 34.3° (Epoch: 23 January)

Date Brightness Start Highest point End Pass type
(mag) Time Alt. Az. Time Alt. Az. Time Alt. Az.
24 Jan - 10:01:59 10° SSW 10:06:40 18° SSE 10:10:14 10° ESE daylight
24 Jan - 12:26:38 10° WSW 12:31:17 35° S 12:35:20 10° ESE daylight
24 Jan - 14:51:34 10° WSW 14:55:32 32° S 15:00:23 10° SE daylight
24 Jan - 17:17:09 10° SW 17:20:22 15° SSW 17:24:27 10° SSE daylight
25 Jan - 08:51:33 10° S 08:55:28 14° SSE 08:58:36 10° SE daylight
25 Jan - 11:15:16 10° SW 11:20:38 30° SSE 11:24:39 10° ESE daylight
25 Jan - 13:40:44 10° WSW 13:44:57 37° S 13:49:16 10° ESE daylight
25 Jan - 16:05:51 10° WSW 16:09:21 20° SSW 16:13:50 10° SSE daylight
26 Jan - 10:03:41 10° SW 10:09:46 25° SSE 10:14:01 10° ESE daylight
26 Jan - 12:29:30 10° WSW 12:34:23 39° S 12:38:29 10° ESE daylight
26 Jan - 14:54:53 10° WSW 14:58:37 26° SSW 15:02:58 10° SE daylight
27 Jan - 08:52:08 10° SSW 08:58:36 20° SSE 09:03:07 10° ESE daylight
27 Jan - 11:17:50 10° WSW 11:23:44 36° S 11:27:58 10° ESE daylight
27 Jan - 13:43:51 10° WSW 13:48:02 33° S 13:52:11 10° SE daylight
27 Jan - 16:09:56 10° SW 16:12:26 14° SSW 16:15:21 10° S daylight
28 Jan - 07:41:10 10° S 07:47:05 15° SSE 07:51:30 10° ESE daylight
28 Jan - 10:05:46 10° SW 10:12:53 32° SSE 10:17:32 10° ESE daylight
28 Jan - 12:32:27 10° WSW 12:37:29 40° S 12:41:37 10° ESE daylight
28 Jan - 14:58:23 10° WSW 15:01:40 20° SSW 15:05:20 10° SSE daylight
29 Jan - 06:32:40 10° SSE 06:35:09 11° SSE 06:37:22 10° SE visible
29 Jan - 08:53:31 10° SW 09:01:45 27° SSE 09:06:58 10° ESE daylight
29 Jan - 11:20:32 10° WSW 11:26:50 42° S 11:31:12 10° ESE daylight
29 Jan - 13:47:03 10° WSW 13:51:05 28° SSW 13:55:00 10° SE daylight
30 Jan - 07:41:26 10° SSW 07:50:13 22° SSE 07:55:59 10° ESE daylight
30 Jan - 10:08:05 10° WSW 10:15:59 39° S 10:20:53 10° ESE daylight
30 Jan - 12:35:27 10° WSW 12:40:33 38° S 12:44:39 10° ESE daylight
30 Jan - 15:02:14 10° WSW 15:04:40 14° SSW 15:07:16 10° S daylight
31 Jan - 06:30:10 10° S 06:38:16 17° SSE 06:44:07 10° ESE visible
31 Jan - 08:55:17 10° SW 09:04:50 35° SSE 09:10:30 10° ESE daylight
31 Jan - 11:23:19 10° WSW 11:29:56 44° S 11:34:23 10° ESE daylight
31 Jan - 13:50:21 10° WSW 13:54:05 23° SSW 13:57:39 10° SSE daylight
01 Feb - 05:21:29 10° SSE 05:25:53 12° SSE 05:29:41 10° SE visible
01 Feb - 07:42:27 10° SSW 07:53:19 29° SSE 07:59:50 10° ESE daylight
01 Feb - 10:10:34 10° WSW 10:19:05 45° S 10:24:10 10° ESE daylight
01 Feb - 12:38:29 10° W 12:43:35 34° SSW 12:47:38 10° SE daylight
02 Feb - 06:30:01 10° SSW 06:41:21 24° SSE 06:48:37 10° ESE visible
02 Feb - 08:57:20 10° SW 09:07:55 42° S 09:13:53 10° E daylight
02 Feb - 11:26:09 10° WSW 11:32:59 45° S 11:37:31 10° ESE daylight
02 Feb - 13:53:51 10° WSW 13:57:01 18° SSW 14:00:01 10° SSE daylight
